GW0162 Weather Reports


time (UTC)temp
C
wind
direction
speed
KPH
gust
KPH
rain 1hr
cm
rain 24hr
cm
rain mn
cm
humidity
%
barometer
mb
20260503180051 16 265 14.5 27.4 0.00 0.00 0.00 35 1010.1
20260503174538 16 284 11.3 30.6 0.00 0.00 0.00 33 1010.2
20260503173038 15 257 12.9 25.7 0.00 0.00 0.00 34 1010.2
20260503171548 15 277 12.9 30.6 0.00 0.00 0.00 34 1010.4
20260503081556 1 0 0.0 0.0 0.00 0.00 0.00 69 1013.7
20260503071538 2 0 0.0 0.0 0.00 0.00 0.00 65 1013.7
20260503060110 0 0 0.0 0.0 0.00 0.00 0.00 80 1013.9
20260503054554 0 0 0.0 0.0 0.00 0.00 0.00 81 1014.0
20260503053046 0 0 0.0 0.0 0.00 0.00 0.00 80 1014.2
20260503051543 0 0 0.0 0.0 0.00 0.00 0.00 79 1014.3
20260503050041 0 0 0.0 0.0 0.00 0.00 0.00 78 1014.4
20260503044548 0 0 0.0 0.0 0.00 0.00 0.00 77 1014.5
20260503043038 1 0 0.0 0.0 0.00 0.00 0.00 75 1014.5
20260503041536 1 0 0.0 0.0 0.00 0.00 0.00 73 1014.7
20260503040045 1 0 0.0 0.0 0.00 0.00 0.00 71 1014.7
20260503034541 2 0 0.0 0.0 0.00 0.00 0.00 67 1014.8
20260503033038 2 0 0.0 0.0 0.00 0.00 0.00 65 1014.9
20260503031544 2 0 0.0 0.0 0.00 0.00 0.00 64 1015.0
20260503030045 3 0 0.0 4.8 0.00 0.00 0.00 64 1015.0
20260503024545 3 0 0.0 3.2 0.00 0.00 0.00 63 1015.1
20260503023044 3 0 0.0 0.0 0.00 0.00 0.00 62 1015.3
20260503021541 3 0 0.0 0.0 0.00 0.00 0.00 61 1015.3
20260503020041 3 0 0.0 1.6 0.00 0.00 0.00 60 1015.2
20260503014538 3 0 0.0 6.4 0.00 0.00 0.00 61 1015.3
20260503013038 3 0 0.0 0.0 0.00 0.00 0.00 62 1015.3
20260503011536 3 0 0.0 6.4 0.00 0.00 0.00 60 1015.4
20260503010044 5 0 0.0 0.0 0.00 0.00 0.00 56 1015.3
20260503004605 5 0 0.0 6.4 0.00 0.00 0.00 56 1015.2
20260503003038 5 0 0.0 4.8 0.00 0.00 0.00 54 1015.2
20260503001547 6 0 0.0 6.4 0.00 0.00 0.00 51 1015.2
20260503000039 7 0 0.0 9.7 0.00 0.00 0.00 47 1015.2
20260502234548 7 107 1.6 11.3 0.00 0.00 0.00 46 1015.1
20260502233044 8 0 0.0 9.7 0.00 0.00 0.00 46 1015.3
20260502231543 7 0 0.0 12.9 0.00 0.00 0.00 46 1015.3
20260502230040 7 0 0.0 8.0 0.00 0.00 0.00 47 1015.3
20260502224539 7 80 3.2 16.1 0.00 0.00 0.00 45 1015.3
20260502223047 7 300 1.6 9.7 0.00 0.00 0.00 40 1015.3
20260502221545 7 268 4.8 11.3 0.00 0.00 0.00 39 1015.3
20260502220047 7 288 3.2 11.3 0.00 0.00 0.00 42 1015.4
20260502214544 7 0 1.6 8.0 0.00 0.00 0.00 41 1015.4
20260502213038 7 0 0.0 8.0 0.00 0.00 0.00 41 1015.4
20260502211539 7 334 4.8 16.1 0.00 0.00 0.00 40 1015.3
20260502210039 7 0 3.2 11.3 0.00 0.00 0.00 40 1015.3
20260502204545 7 308 3.2 11.3 0.00 0.00 0.00 42 1015.4
20260502203046 7 279 6.4 14.5 0.00 0.00 0.00 40 1015.5
20260502201548 7 277 6.4 16.1 0.00 0.00 0.00 42 1015.6
20260502200040 7 318 1.6 14.5 0.00 0.00 0.00 41 1015.9
20260502194543 7 0 0.0 4.8 0.00 0.00 0.00 44 1016.0
20260502193037 7 0 0.0 4.8 0.00 0.00 0.00 42 1016.2
20260502191544 7 0 0.0 12.9 0.00 0.00 0.00 42 1016.4
20260502190046 7 337 0.0 14.5 0.00 0.00 0.00 45 1016.5
20260502184553 6 0 6.4 17.7 0.00 0.00 0.00 45 1016.5
20260502183040 6 298 4.8 14.5 0.00 0.00 0.00 46 1016.5
20260502181547 6 259 4.8 14.5 0.00 0.00 0.00 46 1016.6